(502911) = 2015 EK15 = 2015 EM19

Discovered at Kitt Peak on 2006-02-24 by Spacewatch.

Orbit

Orbit type: Main Belt

Note: WebGL enabled browser required.

epoch2024-03-31.0
epoch JD2460400.5
perihelion date2024-09-28.62863
perihelion JD2460582.12863
argument of perihelion (°)170.29458
ascending node (°)4.00355
inclination (°)8.78605
eccentricity0.0889176
perihelion distance (AU)2.5425385
Tisserand w.r.t. Jupiter3.3
ΔV w.r.t. Earth (km/sec)10.3
semimajor axis (AU)2.7906789
mean anomaly (°)321.60070
mean daily motion (°/day)0.21141660
aphelion distance (AU)3.039
period (years)4.66
P-vector [x]-0.99491421
P-vector [y]0.07910052
P-vector [z]0.06236044
Q-vector [x]-0.10015981
Q-vector [y]-0.84246756
Q-vector [z]-0.52935472
absolute magnitude16.93
phase slope0.15
uncertainty0
referenceMPEC 2024-C163
observations used198
oppositions10
arc length (days)6563
first opposition used2006
last opposition used2024
residual rms (arc-secs)0.80
perturbers coarse indicatorM-v
perturbers precise indicator003Ek
first observation date used2006-02-24.0
last observation date used2024-02-13.0
computer nameMPCLINUX
JD of orbit computation2458026.095823
perihelion JD uncertainty (days)1.4675E-04
argument of perihelion uncertainty (°)4.5815E-05
ascending node uncertainty (°)3.6767E-05
inclination uncertainty (°)1.0163E-05
eccentricity uncertainty 1.4298E-07
perihelion distance uncertainty (AU)4.1538E-07
Minimum Orbit Intersection Distances (in AU)
for orbit epoch: 2460200.5, reference: E2024-CG3
Mercury2.1426
Venus1.82396
Earth1.54676
Mars0.88252
Jupiter1.92046
Saturn6.2816
Uranus15.9021
Neptune26.8334

Observations

203 total observations over interval: 2006 02 24.44816 – 2024 02 13.268503
These data are available for download (format description).

Date (UT) J2000 RA J2000 Dec Magn Location Ref
2006 02 24.44816 12 59 33.44 -05 36 40.2 20.9 V 691 – Steward Observatory, Kitt Peak-Spacewatch MPS 723612
2006 02 24.46549 12 59 33.04 -05 36 41.5 20.7 V 691 – Steward Observatory, Kitt Peak-Spacewatch MPS 723612
2006 02 24.48282 12 59 32.61 -05 36 42.0 21.0 V 691 – Steward Observatory, Kitt Peak-Spacewatch MPS 723612
2006 03 25.33693 12 39 17.53 -05 23 27.4 20.0 V G96 – Mt. Lemmon Survey MPS 723612
2006 03 25.34310 12 39 17.13 -05 23 27.0 20.0 V G96 – Mt. Lemmon Survey MPS 723612
2006 03 25.34884 12 39 16.81 -05 23 26.4 20.1 V G96 – Mt. Lemmon Survey MPS 723612
2006 03 25.35454 12 39 16.48 -05 23 25.8 20.4 V G96 – Mt. Lemmon Survey MPS 723612
2008 09 07.35111 01 25 49.54 +10 45 14.1 21.1 V G96 – Mt. Lemmon Survey MPS 723612
2008 09 07.35723 01 25 49.36 +10 45 14.1 21.4 V G96 – Mt. Lemmon Survey MPS 723612
2008 09 07.36334 01 25 49.15 +10 45 14.4 22.1 V G96 – Mt. Lemmon Survey MPS 723612
2008 09 07.36944 01 25 48.97 +10 45 14.5 22.3 V G96 – Mt. Lemmon Survey MPS 723612
2013 10 14.40283 03 02 17.27 +25 06 46.4 21.4 V 691 – Steward Observatory, Kitt Peak-Spacewatch MPS 815681
2013 10 14.42056 03 02 16.46 +25 06 47.9 21.3 V 691 – Steward Observatory, Kitt Peak-Spacewatch MPS 815681
2013 10 14.43830 03 02 15.71 +25 06 48.0 21.5 V 691 – Steward Observatory, Kitt Peak-Spacewatch MPS 815681
2015 01 18.40023 10 44 37.39 +17 27 05.5 20.7 V 691 – Steward Observatory, Kitt Peak-Spacewatch MPS 712416
2015 01 18.42049 10 44 36.89 +17 27 08.9 21.1 V 691 – Steward Observatory, Kitt Peak-Spacewatch MPS 712416
2015 01 18.44070 10 44 36.43 +17 27 10.9 20.4 V 691 – Steward Observatory, Kitt Peak-Spacewatch MPS 712416
2015 01 23.44643 10 42 25.049 +17 39 12.63 20.7 w F51 – Pan-STARRS 1, Haleakala MPS 612693
2015 01 23.45831 10 42 24.667 +17 39 14.54 20.6 w F51 – Pan-STARRS 1, Haleakala MPS 612693
2015 01 23.47023 10 42 24.275 +17 39 16.47 20.7 w F51 – Pan-STARRS 1, Haleakala MPS 612693
2015 01 23.48235 10 42 23.878 +17 39 18.38 20.6 w F51 – Pan-STARRS 1, Haleakala MPS 612693
2015 01 24.45111 10 41 53.32 +17 41 49.2 20.2 r G45 – Space Surveillance Telescope, Atom Site MPS 612693
2015 01 24.46008 10 41 53.06 +17 41 52.0 20.7 r G45 – Space Surveillance Telescope, Atom Site MPS 612693
2015 01 24.46422 10 41 52.90 +17 41 51.7 20.5 r G45 – Space Surveillance Telescope, Atom Site MPS 612693
2015 01 24.47052 10 41 52.70 +17 41 53.3 20.4 r G45 – Space Surveillance Telescope, Atom Site MPS 612693
2015 01 25.42998 10 41 21.432 +17 44 28.73 20.7 w F51 – Pan-STARRS 1, Haleakala MPS 712416
2015 01 25.44122 10 41 21.037 +17 44 30.62 20.6 w F51 – Pan-STARRS 1, Haleakala MPS 612693
2015 01 25.44188 10 41 21.009 +17 44 30.57 20.7 w F51 – Pan-STARRS 1, Haleakala MPS 712416
2015 01 25.45316 10 41 20.612 +17 44 32.69 20.7 w F51 – Pan-STARRS 1, Haleakala MPS 612693
2015 01 25.45382 10 41 20.581 +17 44 32.73 20.8 w F51 – Pan-STARRS 1, Haleakala MPS 712416
2015 01 25.46508 10 41 20.179 +17 44 34.63 20.7 w F51 – Pan-STARRS 1, Haleakala MPS 612693
2015 01 27.43228 10 40 10.51 +17 50 01.7 21.0 r G45 – Space Surveillance Telescope, Atom Site MPS 612693
2015 01 27.44057 10 40 10.33 +17 50 01.8 20.2 r G45 – Space Surveillance Telescope, Atom Site MPS 612693
2015 01 27.44947 10 40 09.93 +17 50 03.7 20.6 r G45 – Space Surveillance Telescope, Atom Site MPS 612693
2015 01 27.45964 10 40 09.55 +17 50 05.1 20.2 r G45 – Space Surveillance Telescope, Atom Site MPS 612693
2015 01 27.46378 10 40 09.36 +17 50 06.2 20.4 r G45 – Space Surveillance Telescope, Atom Site MPS 612693
2015 02 13.42557 10 26 40.30 +18 39 34.2 20.0 V G96 – Mt. Lemmon Survey MPS 712416
2015 02 13.42865 10 26 40.13 +18 39 34.7 20.0 V G96 – Mt. Lemmon Survey MPS 712416
2015 02 13.43173 10 26 39.94 +18 39 34.9 20.0 V G96 – Mt. Lemmon Survey MPS 712416
2015 02 13.43481 10 26 39.78 +18 39 35.7 19.8 V G96 – Mt. Lemmon Survey MPS 712416
2015 03 14.26685 10 00 07.742 +19 11 15.74 20.6 w F51 – Pan-STARRS 1, Haleakala MPS 587404
2015 03 14.27970 10 00 07.142 +19 11 15.06 20.7 w F51 – Pan-STARRS 1, Haleakala MPS 587407
2015 03 14.28037 10 00 07.115 +19 11 14.97 20.3 w F51 – Pan-STARRS 1, Haleakala MPS 587404
2015 03 14.29394 10 00 06.482 +19 11 14.25 20.4 w F51 – Pan-STARRS 1, Haleakala MPS 587407
2015 03 14.29460 10 00 06.448 +19 11 14.27 20.4 w F51 – Pan-STARRS 1, Haleakala MPS 587404
2015 03 14.30692 10 00 05.875 +19 11 13.63 20.4 w F51 – Pan-STARRS 1, Haleakala MPS 587407
2015 03 14.30758 10 00 05.852 +19 11 13.64 20.4 w F51 – Pan-STARRS 1, Haleakala MPS 587404
2015 03 15.24721 09 59 24.661 +19 10 14.79 20.6 w F51 – Pan-STARRS 1, Haleakala MPS 587407
2015 03 15.24788 09 59 24.637 +19 10 14.66 20.5 w F51 – Pan-STARRS 1, Haleakala MPS 587404
2015 03 15.26000 09 59 24.098 +19 10 13.96 20.5 w F51 – Pan-STARRS 1, Haleakala MPS 587407
2015 03 15.26066 09 59 24.062 +19 10 13.94 20.3 w F51 – Pan-STARRS 1, Haleakala MPS 587404
2015 03 15.27279 09 59 23.524 +19 10 13.19 20.5 w F51 – Pan-STARRS 1, Haleakala MPS 587407
2015 03 15.28557 09 59 22.930 +19 10 12.38 20.6 w F51 – Pan-STARRS 1, Haleakala MPS 587407
2015 03 17.26499 09 57 59.77 +19 07 40.3 20.7 r G45 – Space Surveillance Telescope, Atom Site MPS 719565
2015 03 17.27233 09 57 59.39 +19 07 38.9 20.7 r G45 – Space Surveillance Telescope, Atom Site MPS 719565
2015 03 17.28782 09 57 58.76 +19 07 37.5 20.7 r G45 – Space Surveillance Telescope, Atom Site MPS 719565
2015 03 17.29480 09 57 58.55 +19 07 36.2 20.8 r G45 – Space Surveillance Telescope, Atom Site MPS 719565
2015 03 17.31842 09 57 57.51 +19 07 34.6 20.4 r G45 – Space Surveillance Telescope, Atom Site MPS 719565
2015 04 11.14068 09 49 34.64 +17 47 53.1 21.2 V G96 – Mt. Lemmon Survey MPS 712416
2015 04 11.14630 09 49 34.63 +17 47 52.0 20.8 V G96 – Mt. Lemmon Survey MPS 712416
2015 04 11.15192 09 49 34.62 +17 47 50.7 21.0 V G96 – Mt. Lemmon Survey MPS 712416
2015 04 11.15755 09 49 34.65 +17 47 48.6 20.8 V G96 – Mt. Lemmon Survey MPS 712416
2015 06 18.27231 10 38 48.854 +09 11 43.85 21.8 w F51 – Pan-STARRS 1, Haleakala MPS 712416
2015 06 18.27739 10 38 49.242 +09 11 41.28 22.0 w F51 – Pan-STARRS 1, Haleakala MPS 712416
2015 06 18.28248 10 38 49.585 +09 11 38.01 22.0 w F51 – Pan-STARRS 1, Haleakala MPS 712416
2017 08 03.52285 00 00 41.138 -04 20 44.74 21.6 w F51 – Pan-STARRS 1, Haleakala MPS 807989
2017 08 03.54442 00 00 40.771 -04 20 45.78 22.0 w F51 – Pan-STARRS 1, Haleakala MPS 807989
2017 08 03.55517 00 00 40.569 -04 20 46.05 22.0 w F51 – Pan-STARRS 1, Haleakala MPS 807989
2017 08 17.47873 23 54 51.618 -04 40 23.42 21.4 w F51 – Pan-STARRS 1, Haleakala MPS 810351
2017 08 17.48978 23 54 51.221 -04 40 24.87 21.4 w F51 – Pan-STARRS 1, Haleakala MPS 810351
2017 09 25.38740 23 24 09.924 -06 29 19.75 21.2 w F51 – Pan-STARRS 1, Haleakala MPS 819226
2017 09 25.39800 23 24 09.376 -06 29 21.50 21.3 w F51 – Pan-STARRS 1, Haleakala MPS 819226
2017 09 25.40859 23 24 08.829 -06 29 23.02 21.1 w F51 – Pan-STARRS 1, Haleakala MPS 819226
2017 09 25.41922 23 24 08.285 -06 29 24.64 21.1 w F51 – Pan-STARRS 1, Haleakala MPS 819226
2017 09 29.20181 23 21 04.67 -06 38 06.8 21.5 V 691 – Steward Observatory, Kitt Peak-Spacewatch MPS 819226
2017 09 29.22146 23 21 03.66 -06 38 09.4 21.2 V 691 – Steward Observatory, Kitt Peak-Spacewatch MPS 819226
2017 09 29.24109 23 21 02.74 -06 38 11.9 21.2 V 691 – Steward Observatory, Kitt Peak-Spacewatch MPS 819226
2018 12 09.26069 04 52 51.15 +35 31 03.0 21.1 G G96 – Mt. Lemmon Survey MPS 967192
2018 12 09.26612 04 52 50.85 +35 31 03.2 20.4 G G96 – Mt. Lemmon Survey MPS 967192
2018 12 09.27160 04 52 50.37 +35 31 02.2 21.7 G G96 – Mt. Lemmon Survey MPS 967192
2018 12 09.27714 04 52 49.98 +35 31 01.9 21.4 G G96 – Mt. Lemmon Survey MPS 967192
2020 01 24.61303 13 01 27.519 -04 32 19.52 21.3 w F52 – Pan-STARRS 2, Haleakala MPS 1144061
2020 01 24.62489 13 01 27.844 -04 32 23.10 21.3 w F52 – Pan-STARRS 2, Haleakala MPS 1144061
2020 01 24.63681 13 01 28.134 -04 32 26.73 21.2 w F52 – Pan-STARRS 2, Haleakala MPS 1144061
2020 01 24.64876 13 01 28.466 -04 32 30.53 21.2 w F52 – Pan-STARRS 2, Haleakala MPS 1144061
2020 01 28.48695 13 03 04.72 -04 51 38.3 21.9 G G96 – Mt. Lemmon Survey MPS 1144061
2020 01 28.49213 13 03 04.90 -04 51 39.5 21.8 G G96 – Mt. Lemmon Survey MPS 1144061
